Location: Yellowknife
(62.4500°N, 114.3500°W)
Time: 22:28:49
(UTC-06:00)

Amateur Radio Satellites - All Passes

Search period start: 01 August 2014 21:58
Search period end: 02 August 2014 21:58
Location: Yellowknife, 62.4500°N, 114.3500°W

Satellite Date Start Highest point End Downlink Frequencies (MHz)
Time Altitude Azimuth
Oscar 11 01 Aug 21:59:52 22:04:12 86° 71° (ENE) 22:08:34 145.825 FM, Beacon 2401.500 USB
UOSAT-12 01 Aug 22:13:48 22:18:12 39° 226° (SW) 22:22:34 437.025 FM, 437.400 FM
HO-68 01 Aug 22:16:37 22:23:29 47° 261° (W) 22:30:24 435.675 MHz FM
RS-15 01 Aug 22:25:48 22:36:17 55° 233° (SW) 22:47:02 29.354 - 29.394 USB, Beacon 29.352 USB
STRAND 1 01 Aug 22:27:51 22:32:32 37° 307° (NW) 22:37:11 ?
FUNcube-1 01 Aug 22:33:12 22:37:25 78° 69° (ENE) 22:41:37 145.950 - 145.970 MHz USB
Oscar 10/S400 01 Aug 22:47:02 23:08:23 27° 148° (SSE) 00:35:39 145.825 - 145.975 CW/USB, Beacon 145.810 USB
UKube-1 01 Aug 22:56:38 23:00:17 25° 268° (W) 23:03:56 145.840 MHz, 145.915 MHz
MaSat-1 01 Aug 23:01:18 23:06:03 85° 136° (SE) 23:11:18 437.345 MHz
OPAL 01 Aug 23:15:43 23:17:27 12° 357° (N) 23:19:11 ?
Oscar 11 01 Aug 23:37:41 23:40:59 21° 272° (W) 23:44:20 145.825 FM, Beacon 2401.500 USB
UOSAT-12 01 Aug 23:55:34 23:57:14 12° 247° (WSW) 23:58:55 437.025 FM, 437.400 FM
STRAND 1 02 Aug 00:07:38 00:10:34 16° 330° (NNW) 00:13:30 ?
HO-68 02 Aug 00:09:13 00:13:11 15° 286° (WNW) 00:17:09 435.675 MHz FM
FUNcube-1 02 Aug 00:10:59 00:14:20 23° 270° (W) 00:17:41 145.950 - 145.970 MHz USB
Sapphire 02 Aug 00:13:43 00:16:46 15° 107° (ESE) 00:19:48 437.095 MHz 1200 baud AX-25 AFSK
RS-15 02 Aug 00:38:31 00:46:08 22° 260° (W) 00:53:54 29.354 - 29.394 USB, Beacon 29.352 USB
MaSat-1 02 Aug 00:39:03 00:43:49 47° 340° (NNW) 00:48:56 437.345 MHz
PCSat 02 Aug 00:45:00 00:49:15 24° 115° (ESE) 00:53:30 145.825 MHz
OPAL 02 Aug 00:51:55 00:54:37 15° 21° (NNE) 00:57:19 ?
ISS 02 Aug 01:38:52 01:40:30 13° 172° (S) 01:42:09 145.800 FM
Sapphire 02 Aug 01:53:53 01:59:04 49° 130° (SE) 02:04:18 437.095 MHz 1200 baud AX-25 AFSK
Oscar 19 02 Aug 01:59:22 02:02:57 19° 83° (E) 02:06:32 437.125 CW, 437.150 USB
MaSat-1 02 Aug 02:17:18 02:22:05 39° 4° (N) 02:27:05 437.345 MHz
PCSat 02 Aug 02:26:33 02:31:57 69° 138° (SE) 02:37:22 145.825 MHz
OPAL 02 Aug 02:27:58 02:32:15 30° 44° (NE) 02:36:35 ?
Oscar 16 02 Aug 02:28:12 02:32:38 28° 90° (E) 02:37:02 437.025 USB, Beacon 2401.1428
JAS-1B 02 Aug 02:37:44 02:45:32 27° 75° (ENE) 02:52:34 435.800 - 435.900 CW/SSB
ITAMSAT 1 02 Aug 02:58:25 03:02:39 25° 88° (E) 03:06:52 435.822 SSB
ISS 02 Aug 03:14:49 03:16:14 12° 192° (SSW) 03:17:39 145.800 FM
Uribyol 2 02 Aug 03:16:35 03:21:14 32° 93° (E) 03:25:51 436.500 FM
AO-27 02 Aug 03:18:42 03:23:23 32° 93° (E) 03:28:01 436.795 MHz FM
AO-Echo 02 Aug 03:19:31 03:24:12 34° 93° (E) 03:28:42 ?
STRAND 1 02 Aug 03:23:22 03:25:12 12° 19° (NNE) 03:27:01 ?
Sapphire 02 Aug 03:36:59 03:42:25 74° 333° (NNW) 03:47:53 437.095 MHz 1200 baud AX-25 AFSK
Oscar 19 02 Aug 03:38:06 03:43:17 69° 105° (ESE) 03:48:28 437.125 CW, 437.150 USB
TMSAT-1 02 Aug 03:39:08 03:43:10 21° 85° (E) 03:47:09 436.925 FM
MaSat-1 02 Aug 03:55:07 04:00:16 56° 27° (NNE) 04:05:29 437.345 MHz
OPAL 02 Aug 04:05:47 04:10:45 88° 246° (WSW) 04:15:49 ?
Gurwin Techsat 1B 02 Aug 04:06:10 04:11:06 36° 95° (E) 04:16:00 435.225 FM
Oscar 16 02 Aug 04:07:23 04:12:35 81° 292° (WNW) 04:17:46 437.025 USB, Beacon 2401.1428
PCSat 02 Aug 04:10:11 04:15:35 62° 342° (NNW) 04:21:00 145.825 MHz
AO-7 02 Aug 04:20:01 04:25:48 20° 78° (ENE) 04:31:33 29.400 - 29.500 MHz
JAS-1B 02 Aug 04:28:18 04:38:01 68° 102° (ESE) 04:46:27 435.800 - 435.900 CW/SSB
ITAMSAT 1 02 Aug 04:37:38 04:42:53 90° 110° (ESE) 04:48:04 435.822 SSB
KITSAT 1 02 Aug 04:40:19 04:42:02 11° 92° (E) 04:43:46 435.175 FM
Uribyol 2 02 Aug 04:56:00 05:01:10 70° 295° (WNW) 05:06:19 436.500 FM
AO-27 02 Aug 04:58:09 05:03:21 70° 295° (WNW) 05:08:31 436.795 MHz FM
AO-Echo 02 Aug 04:58:15 05:03:22 65° 296° (WNW) 05:08:17 ?
STRAND 1 02 Aug 04:58:51 05:02:54 24° 42° (NE) 05:06:56 ?
Oscar 19 02 Aug 05:17:44 05:22:27 36° 307° (NW) 05:27:09 437.125 CW, 437.150 USB
TMSAT-1 02 Aug 05:18:38 05:23:59 77° 107° (ESE) 05:29:17 436.925 FM
Uosat F 02 Aug 05:20:31 05:24:57 30° 93° (E) 05:29:21 435.120 FM
Sapphire 02 Aug 05:21:06 05:26:26 53° 358° (N) 05:31:47 437.095 MHz 1200 baud AX-25 AFSK
MaSat-1 02 Aug 05:32:35 05:37:49 65° 230° (SW) 05:43:00 437.345 MHz
Gurwin Techsat 1B 02 Aug 05:46:09 05:51:27 64° 297° (WNW) 05:56:42 435.225 FM
OPAL 02 Aug 05:46:23 05:50:22 24° 268° (W) 05:54:23 ?
Oscar 16 02 Aug 05:47:09 05:51:25 27° 315° (NW) 05:55:41 437.025 USB, Beacon 2401.1428
PCSat 02 Aug 05:54:20 05:59:41 54° 7° (N) 06:05:03 145.825 MHz
AO-7 02 Aug 06:12:27 06:20:41 56° 104° (ESE) 06:28:49 29.400 - 29.500 MHz
ITAMSAT 1 02 Aug 06:17:31 06:21:57 29° 313° (NW) 06:26:22 435.822 SSB
JAS-1B 02 Aug 06:19:00 06:28:28 58° 308° (NW) 06:36:52 435.800 - 435.900 CW/SSB
Hamsat 02 Aug 06:21:38 06:24:10 15° 83° (E) 06:26:42 145.90 MHz
KITSAT 1 02 Aug 06:27:56 06:35:01 35° 117° (ESE) 06:42:07 435.175 FM
JAS-2 02 Aug 06:33:12 06:37:37 20° 79° (E) 06:41:41 435.800 - 435.900 CW/SSB, 435.910 FM
Uribyol 2 02 Aug 06:35:56 06:40:01 24° 318° (NW) 06:44:05 436.500 FM
STRAND 1 02 Aug 06:36:20 06:41:27 70° 65° (ENE) 06:46:35 ?
AO-Echo 02 Aug 06:37:29 06:41:25 22° 319° (NW) 06:45:15 ?
AO-27 02 Aug 06:38:07 06:42:14 24° 318° (NW) 06:46:20 436.795 MHz FM
Oscar 19 02 Aug 06:57:41 07:00:37 15° 330° (NNW) 07:03:33 437.125 CW, 437.150 USB
TMSAT-1 02 Aug 06:58:53 07:03:37 34° 310° (NW) 07:08:19 436.925 FM
Uosat F 02 Aug 06:59:11 07:04:14 73° 295° (WNW) 07:09:14 435.120 FM
Saudisat 1A 02 Aug 07:00:26 07:01:32 11° 113° (ESE) 07:02:39 436.775 MHz
Sapphire 02 Aug 07:05:03 07:10:30 68° 23° (NNE) 07:15:56 437.095 MHz 1200 baud AX-25 AFSK
MaSat-1 02 Aug 07:10:30 07:14:24 21° 252° (WSW) 07:18:14 437.345 MHz
Gurwin Techsat 1B 02 Aug 07:26:35 07:30:41 23° 319° (NW) 07:34:46 435.225 FM
Oscar 16 02 Aug 07:27:12 07:29:22 13° 338° (NNW) 07:31:31 437.025 USB, Beacon 2401.1428
PCSat 02 Aug 07:38:07 07:43:36 85° 32° (NNE) 07:49:04 145.825 MHz
Hamsat 02 Aug 07:56:41 08:00:59 67° 104° (ESE) 08:05:19 145.90 MHz
ITAMSAT 1 02 Aug 07:57:36 08:00:06 14° 336° (NNW) 08:02:35 435.822 SSB
AO-7 02 Aug 08:05:33 08:13:47 65° 308° (NW) 08:21:57 29.400 - 29.500 MHz
JAS-1B 02 Aug 08:09:07 08:17:23 33° 334° (NNW) 08:25:02 435.800 - 435.900 CW/SSB
Uribyol 2 02 Aug 08:16:04 08:17:59 12° 341° (NNW) 08:19:55 436.500 FM
STRAND 1 02 Aug 08:16:29 08:21:05 32° 267° (W) 08:25:43 ?
AO-Echo 02 Aug 08:17:05 08:18:36 11° 342° (NNW) 08:20:07 ?
JAS-2 02 Aug 08:17:49 08:24:04 70° 105° (ESE) 08:29:35 435.800 - 435.900 CW/SSB, 435.910 FM
AO-27 02 Aug 08:18:15 08:20:14 12° 341° (NNW) 08:22:14 436.795 MHz FM
KITSAT 1 02 Aug 08:21:29 08:29:35 78° 142° (SE) 08:37:41 435.175 FM
SO-67 02 Aug 08:22:27 08:25:31 27° 94° (E) 08:28:33 435.3500 MHz FM
Saudisat 1A 02 Aug 08:35:58 08:40:03 37° 135° (SE) 08:44:09 436.775 MHz
Uosat F 02 Aug 08:38:25 08:42:26 24° 317° (NW) 08:46:25 435.120 FM
TMSAT-1 02 Aug 08:39:22 08:42:16 15° 333° (NNW) 08:45:10 436.925 FM
Sapphire 02 Aug 08:48:39 08:53:58 56° 227° (SW) 08:59:16 437.095 MHz 1200 baud AX-25 AFSK
Gurwin Techsat 1B 02 Aug 09:07:07 09:09:04 12° 343° (NNW) 09:11:00 435.225 FM
PCSat 02 Aug 09:21:43 09:26:44 39° 235° (SW) 09:31:43 145.825 MHz
HO-68 02 Aug 09:31:40 09:37:21 25° 84° (E) 09:43:00 435.675 MHz FM
Hamsat 02 Aug 09:32:59 09:36:45 30° 305° (NW) 09:40:31 145.90 MHz
Uribyol 2 02 Aug 09:55:10 09:55:31 10° 6° (N) 09:55:52 436.500 FM
SO-67 02 Aug 09:55:24 09:58:47 47° 294° (WNW) 10:02:09 435.3500 MHz FM
AO-27 02 Aug 09:57:09 09:57:48 10° 6° (N) 09:58:27 436.795 MHz FM
JAS-1B 02 Aug 09:57:51 10:05:27 27° 0° (N) 10:12:43 435.800 - 435.900 CW/SSB
AO-7 02 Aug 09:58:15 10:05:30 35° 334° (NNW) 10:12:43 29.400 - 29.500 MHz
JAS-2 02 Aug 10:03:08 10:08:56 40° 310° (NW) 10:14:07 435.800 - 435.900 CW/SSB, 435.910 FM
Oscar 19 02 Aug 10:13:43 10:15:30 12° 19° (NNE) 10:17:18 437.125 CW, 437.150 USB
Saudisat 1A 02 Aug 10:14:57 10:19:25 89° 338° (NNW) 10:23:53 436.775 MHz
KITSAT 1 02 Aug 10:17:11 10:25:19 72° 349° (N) 10:33:27 435.175 FM
Uosat F 02 Aug 10:17:59 10:19:46 12° 340° (NNW) 10:21:33 435.120 FM
TMSAT-1 02 Aug 10:19:47 10:20:18 10° 357° (N) 10:20:49 436.925 FM
Sapphire 02 Aug 10:32:49 10:36:27 18° 249° (WSW) 10:40:04 437.095 MHz 1200 baud AX-25 AFSK
UKube-1 02 Aug 10:32:58 10:36:50 30° 94° (E) 10:40:41 145.840 MHz, 145.915 MHz
Oscar 16 02 Aug 10:41:37 10:44:15 14° 27° (NNE) 10:46:53 437.025 USB, Beacon 2401.1428
Gurwin Techsat 1B 02 Aug 10:45:58 10:47:02 11° 8° (N) 10:48:05 435.225 FM
PCSat 02 Aug 11:07:13 11:08:48 11° 257° (WSW) 11:10:22 145.825 MHz
Hamsat 02 Aug 11:10:31 11:11:36 11° 327° (NNW) 11:12:41 145.90 MHz
ITAMSAT 1 02 Aug 11:12:41 11:15:18 14° 25° (NNE) 11:17:55 435.822 SSB
Oscar 11 02 Aug 11:12:45 11:16:52 39° 97° (E) 11:20:58 145.825 FM, Beacon 2401.500 USB
HO-68 02 Aug 11:19:11 11:26:23 72° 108° (ESE) 11:33:31 435.675 MHz FM
AO-Echo 02 Aug 11:29:19 11:32:18 15° 30° (NNE) 11:35:15 ?
SO-67 02 Aug 11:29:45 11:31:09 12° 316° (NW) 11:32:32 435.3500 MHz FM
Uribyol 2 02 Aug 11:30:08 11:33:11 16° 30° (NNE) 11:36:14 436.500 FM
AO-27 02 Aug 11:32:24 11:35:31 16° 30° (NNE) 11:38:37 436.795 MHz FM
JAS-1B 02 Aug 11:45:12 11:53:31 33° 26° (NNE) 12:01:39 435.800 - 435.900 CW/SSB
FUNcube-1 02 Aug 11:47:43 11:51:36 36° 96° (E) 11:55:30 145.950 - 145.970 MHz USB
JAS-2 02 Aug 11:48:18 11:52:34 19° 336° (NNW) 11:56:32 435.800 - 435.900 CW/SSB, 435.910 FM
Oscar 19 02 Aug 11:49:19 11:53:20 24° 43° (NE) 11:57:23 437.125 CW, 437.150 USB
AO-7 02 Aug 11:49:43 11:56:23 28° 1° (N) 12:03:02 29.400 - 29.500 MHz
Saudisat 1A 02 Aug 11:54:50 11:59:16 66° 1° (N) 12:03:41 436.775 MHz
TMSAT-1 02 Aug 11:55:52 11:58:15 13° 22° (NNE) 12:00:37 436.925 FM
UKube-1 02 Aug 12:09:03 12:13:23 62° 296° (WNW) 12:17:41 145.840 MHz, 145.915 MHz
KITSAT 1 02 Aug 12:13:19 12:21:28 75° 17° (NNE) 12:29:35 435.175 FM
Oscar 16 02 Aug 12:17:50 12:22:20 32° 50° (NE) 12:26:52 437.025 USB, Beacon 2401.1428
Gurwin Techsat 1B 02 Aug 12:21:49 12:25:11 17° 32° (NNE) 12:28:34 435.225 FM
SO-50 02 Aug 12:41:28 12:44:56 22° 124° (ESE) 12:48:29 436.795 FM
ITAMSAT 1 02 Aug 12:48:58 12:53:29 31° 48° (NE) 12:58:00 435.822 SSB
Oscar 11 02 Aug 12:49:01 12:53:12 47° 299° (WNW) 12:57:22 145.825 FM, Beacon 2401.500 USB
RS-15 02 Aug 13:03:41 13:12:33 30° 107° (ESE) 13:21:21 29.354 - 29.394 USB, Beacon 29.352 USB
AO-Echo 02 Aug 13:05:05 13:09:54 36° 53° (NE) 13:14:38 ?
Uribyol 2 02 Aug 13:06:46 13:11:32 38° 53° (NE) 13:16:17 436.500 FM
HO-68 02 Aug 13:07:10 13:13:56 47° 312° (NW) 13:20:41 435.675 MHz FM
AO-27 02 Aug 13:09:06 13:13:54 38° 53° (NE) 13:18:42 436.795 MHz FM
FUNcube-1 02 Aug 13:24:10 13:28:12 48° 297° (WNW) 13:32:15 145.950 - 145.970 MHz USB
Oscar 19 02 Aug 13:26:56 13:32:02 70° 65° (ENE) 13:37:11 437.125 CW, 437.150 USB
Uosat F 02 Aug 13:30:53 13:33:37 15° 28° (NNE) 13:36:20 435.120 FM
JAS-2 02 Aug 13:32:10 13:35:33 15° 2° (N) 13:38:45 435.800 - 435.900 CW/SSB, 435.910 FM
TMSAT-1 02 Aug 13:32:19 13:36:43 27° 45° (NE) 13:41:08 436.925 FM
JAS-1B 02 Aug 13:32:59 13:42:25 57° 51° (NE) 13:51:52 435.800 - 435.900 CW/SSB
Saudisat 1A 02 Aug 13:34:38 13:39:06 88° 205° (SSW) 13:43:33 436.775 MHz
AO-7 02 Aug 13:39:59 13:47:19 36° 28° (NNE) 13:54:38 29.400 - 29.500 MHz
UKube-1 02 Aug 13:45:53 13:48:57 19° 317° (NW) 13:51:59 145.840 MHz, 145.915 MHz
Oscar 16 02 Aug 13:56:14 14:01:23 80° 252° (WSW) 14:06:34 437.025 USB, Beacon 2401.1428
Gurwin Techsat 1B 02 Aug 13:59:06 14:04:04 42° 55° (NE) 14:09:04 435.225 FM
KITSAT 1 02 Aug 14:08:59 14:17:01 68° 223° (SW) 14:25:00 435.175 FM
UOSAT-12 02 Aug 14:15:26 14:18:35 18° 120° (ESE) 14:21:46 437.025 FM, 437.400 FM
SO-50 02 Aug 14:20:21 14:24:51 64° 146° (SE) 14:29:29 436.795 FM
Oscar 11 02 Aug 14:26:03 14:28:33 15° 320° (NW) 14:31:03 145.825 FM, Beacon 2401.500 USB
ITAMSAT 1 02 Aug 14:27:22 14:32:37 86° 250° (WSW) 14:37:52 435.822 SSB
AO-Echo 02 Aug 14:43:08 14:48:27 71° 255° (WSW) 14:53:43 ?
Uribyol 2 02 Aug 14:45:41 14:50:52 66° 255° (WSW) 14:56:03 436.500 FM
AO-27 02 Aug 14:48:04 14:53:16 65° 255° (WSW) 14:58:29 436.795 MHz FM
HO-68 02 Aug 14:54:47 15:00:20 25° 337° (NNW) 15:05:53 435.675 MHz FM
FUNcube-1 02 Aug 15:01:28 15:03:49 15° 319° (NW) 15:06:10 145.950 - 145.970 MHz USB
Uosat F 02 Aug 15:06:42 15:11:14 34° 51° (NE) 15:15:46 435.120 FM
Oscar 19 02 Aug 15:07:15 15:11:51 32° 267° (W) 15:16:28 437.125 CW, 437.150 USB
TMSAT-1 02 Aug 15:10:48 15:16:07 81° 68° (ENE) 15:21:28 436.925 FM
RS-15 02 Aug 15:12:12 15:22:59 67° 136° (SE) 15:33:47 29.354 - 29.394 USB, Beacon 29.352 USB
JAS-2 02 Aug 15:13:48 15:18:34 20° 27° (NNE) 15:22:59 435.800 - 435.900 CW/SSB, 435.910 FM
Saudisat 1A 02 Aug 15:14:23 15:18:25 35° 226° (SW) 15:22:25 436.775 MHz
JAS-1B 02 Aug 15:23:02 15:32:43 72° 256° (WSW) 15:42:38 435.800 - 435.900 CW/SSB
AO-7 02 Aug 15:30:50 15:39:07 68° 53° (NE) 15:47:24 29.400 - 29.500 MHz
Oscar 16 02 Aug 15:37:42 15:41:35 21° 274° (W) 15:45:30 437.025 USB, Beacon 2401.1428
Gurwin Techsat 1B 02 Aug 15:38:43 15:43:59 60° 257° (WSW) 15:49:16 435.225 FM
Hamsat 02 Aug 15:52:04 15:54:04 13° 38° (NE) 15:56:03 145.90 MHz
UOSAT-12 02 Aug 15:53:22 15:57:56 54° 142° (SE) 16:02:34 437.025 FM, 437.400 FM
SO-50 02 Aug 16:00:54 16:05:30 72° 349° (N) 16:10:13 436.795 FM
KITSAT 1 02 Aug 16:04:40 16:11:17 29° 248° (WSW) 16:17:52 435.175 FM
OPAL 02 Aug 16:07:10 16:07:51 10° 78° (ENE) 16:08:33 ?
ITAMSAT 1 02 Aug 16:08:44 16:12:52 23° 272° (W) 16:17:02 435.822 SSB
AO-Echo 02 Aug 16:24:20 16:28:09 20° 276° (W) 16:31:56 ?
Uribyol 2 02 Aug 16:27:55 16:31:22 18° 277° (W) 16:34:50 436.500 FM
AO-27 02 Aug 16:30:21 16:33:50 18° 277° (W) 16:37:19 436.795 MHz FM
HO-68 02 Aug 16:41:06 16:46:04 21° 3° (N) 16:51:02 435.675 MHz FM
Uosat F 02 Aug 16:44:45 16:49:48 72° 253° (WSW) 16:54:52 435.120 FM
TMSAT-1 02 Aug 16:52:06 16:56:39 28° 270° (W) 17:01:14 436.925 FM
JAS-2 02 Aug 16:55:39 17:02:18 41° 50° (NE) 17:08:18 435.800 - 435.900 CW/SSB, 435.910 FM
JAS-1B 02 Aug 17:16:34 17:24:52 31° 281° (W) 17:33:20 435.800 - 435.900 CW/SSB
Gurwin Techsat 1B 02 Aug 17:21:48 17:25:07 16° 280° (W) 17:28:26 435.225 FM
AO-7 02 Aug 17:24:11 17:32:19 53° 258° (WSW) 17:40:29 29.400 - 29.500 MHz
RS-15 02 Aug 17:24:16 17:35:17 83° 346° (NNW) 17:46:24 29.354 - 29.394 USB, Beacon 29.352 USB
Hamsat 02 Aug 17:25:09 17:29:05 39° 60° (ENE) 17:33:05 145.90 MHz
UOSAT-12 02 Aug 17:33:20 17:38:04 77° 345° (NNW) 17:42:51 437.025 FM, 437.400 FM
SO-67 02 Aug 17:35:05 17:36:46 13° 46° (NE) 17:38:27 435.3500 MHz FM
SO-50 02 Aug 17:41:45 17:46:24 74° 13° (NNE) 17:51:10 436.795 FM
OPAL 02 Aug 17:43:23 17:48:11 40° 101° (E) 17:53:00 ?
Uosat F 02 Aug 18:25:57 18:29:30 19° 275° (W) 18:33:04 435.120 FM
HO-68 02 Aug 18:26:02 18:31:54 29° 29° (NNE) 18:37:46 435.675 MHz FM
UKube-1 02 Aug 18:31:33 18:32:28 11° 27° (NNE) 18:33:22 145.840 MHz, 145.915 MHz
STRAND 1 02 Aug 18:37:49 18:39:11 11° 75° (ENE) 18:40:32 ?
JAS-2 02 Aug 18:39:37 18:47:04 81° 252° (WSW) 18:53:44 435.800 - 435.900 CW/SSB, 435.910 FM
Hamsat 02 Aug 19:01:01 19:05:05 46° 261° (W) 19:09:12 145.90 MHz
SO-67 02 Aug 19:05:47 19:09:11 54° 67° (ENE) 19:12:37 435.3500 MHz FM
Oscar 11 02 Aug 19:10:45 19:11:46 11° 31° (NNE) 19:12:48 145.825 FM, Beacon 2401.500 USB
UOSAT-12 02 Aug 19:13:49 19:18:34 70° 8° (N) 19:23:19 437.025 FM, 437.400 FM
JAS-1B 02 Aug 19:16:34 19:19:13 11° 309° (NW) 19:21:52 435.800 - 435.900 CW/SSB
AO-7 02 Aug 19:21:50 19:27:19 19° 284° (WNW) 19:32:49 29.400 - 29.500 MHz
OPAL 02 Aug 19:22:21 19:27:19 58° 302° (WNW) 19:32:20 ?
SO-50 02 Aug 19:22:24 19:27:01 59° 216° (SW) 19:31:42 436.795 FM
RS-15 02 Aug 19:37:17 19:48:18 85° 17° (NNE) 19:59:31 29.354 - 29.394 USB, Beacon 29.352 USB
UKube-1 02 Aug 20:03:48 20:07:28 26° 50° (NE) 20:11:07 145.840 MHz, 145.915 MHz
HO-68 02 Aug 20:11:34 20:18:33 58° 54° (NE) 20:25:33 435.675 MHz FM
STRAND 1 02 Aug 20:14:56 20:19:49 42° 98° (E) 20:24:40 ?
JAS-2 02 Aug 20:26:49 20:33:01 28° 274° (W) 20:38:43 435.800 - 435.900 CW/SSB, 435.910 FM
SO-67 02 Aug 20:39:38 20:42:32 24° 268° (W) 20:45:27 435.3500 MHz FM
Hamsat 02 Aug 20:41:42 20:42:12 10° 283° (WNW) 20:42:41 145.90 MHz
Oscar 11 02 Aug 20:43:05 20:46:48 29° 53° (NE) 20:50:32 145.825 FM, Beacon 2401.500 USB
UOSAT-12 02 Aug 20:54:07 20:58:52 71° 212° (SSW) 21:03:35 437.025 FM, 437.400 FM
OPAL 02 Aug 21:01:39 21:05:28 22° 324° (NW) 21:09:19 ?
SO-50 02 Aug 21:03:26 21:06:54 20° 238° (WSW) 21:10:23 436.795 FM
MaSat-1 02 Aug 21:11:00 21:14:56 27° 113° (ESE) 21:19:13 437.345 MHz
FUNcube-1 02 Aug 21:19:27 21:22:57 26° 53° (NE) 21:26:27 145.950 - 145.970 MHz USB
UKube-1 02 Aug 21:38:56 21:43:19 83° 251° (WSW) 21:47:44 145.840 MHz, 145.915 MHz
